Tracking 19570 objects as of 22-Feb-2019
HD Live streaming from Space Station
objects crossing your sky now

OPS 9321 (IDSCS 8)

Track OPS 9321 (IDSCS 8) now!
OPS 9321 (IDSCS 8) is classified as:


NORAD ID: 2645
Int'l Code: 1967-003A
Perigee: 33,543.3 km
Apogee: 33,815.1 km
Inclination: 3.5 °
Period: 1,329.4 minutes
Semi major axis: 40050 km
RCS: 0.3981 m2 (medium)
Launch date: January 18, 1967
Source: United States (US)
Launch site: AIR FORCE EASTERN TEST RANGE (AFETR)
aabbcc
Your satellite tracking list
Your tracking list is empty




NASA's NSSDC Master Catalog

Two Line Element Set (TLE):
1  2645U 67003A   19053.20064505 -.00000099  00000-0  00000+0 0  9991
2  2645   3.5436  58.2733 0033924  49.3926 322.6784  1.08316868205507
Source of the keplerian elements: AFSPC